[[{"header":{"parameterUnit":"m.s-1","parameterCategory":1,"la1":30.2991,"la2":30.254,"lo1":-89.0895,"lo2":-89.0444,"dy":0.0017,"dx":0.0017,"nx":28,"ny":28,"refTime":"2024-07-18T21:00:00:Z","depth":0,"parameterNumber":2,"parameterNumberName":"U-component_of_WINDS"},"data":[0,0,0,0,0,0,0,0,0,0,0,0,0,0,0,0,0,0,0,0,0,0,0,0,0,0,0,0,0,0,0,0,0,0,0,0,0,0,0,0,0,0,0,0,0,0,0,0,0,0,0,0,0,0,0,0,0,0,2.5605,2.5607,0,2.5796,2.5798,2.5801,2.5811,2.5808,2.5806,2.5804,2.6002,2.6009,2.6017,0,0,0,0,0,0,0,0,0,0,0,0,0,2.525,2.5256,2.5604,2.5607,2.5609,2.5796,2.5798,2.5801,2.5811,2.5808,2.5806,2.5803,2.6,2.6009,2.6017,0,0,0,0,0,0,0,0,0,0,0,0,0,2.5419,2.5259,2.5604,2.5637,2.5641,2.5795,2.5799,2.5802,2.5812,2.5808,2.5805,2.5802,2.5997,2.6008,2.6019,2.6153,0,0,2.6052,2.6057,0,0,0,0,0,0,0,0,2.5409,2.5432,2.563,2.5635,2.564,2.5776,2.5746,2.592,2.5812,2.5747,2.5804,2.58,2.593,2.5946,2.599,2.6163,2.6171,2.6053,2.606,2.6065,2.6068,0,0,0,0,0,0,0,2.5398,2.5424,2.568,2.5632,2.5639,2.5643,2.5663,2.5779,2.5855,2.5753,2.5754,2.5776,2.5932,2.5979,2.5994,2.6174,2.6053,2.6063,2.607,2.6074,2.6468,2.6472,0,0,0,0,0,0,2.5379,2.5414,2.5674,2.5686,2.5514,2.5652,2.5674,2.5736,2.5854,2.5868,2.5779,2.5776,2.5962,2.5981,2.6001,2.6167,2.6065,2.6075,2.6081,2.6465,2.6469,2.6473,0,0,0,0,0,0,2.5372,2.5402,2.5667,2.5551,2.5584,2.5661,2.573,2.5741,2.5788,2.5873,2.5887,2.5812,2.596,2.5986,2.6116,2.6174,2.608,2.609,2.646,2.6466,2.6471,2.65,0,0,0,0,0,0,2.5361,2.54,2.5451,2.5552,2.5591,2.5777,2.5734,2.5748,2.5807,2.5805,2.5909,2.5923,2.5959,2.6099,2.6127,2.6188,2.6099,2.6455,2.6463,2.647,2.6494,2.6506,2.6516,0,0,0,0,0,2.5349,2.5452,2.5453,2.5485,2.5656,2.578,2.5803,2.5842,2.5811,2.5864,2.5919,2.5919,2.6163,2.6112,2.6143,2.6209,2.6452,2.6461,2.6469,2.6489,2.6503,2.6516,0,0,0,0,0,0,2.5357,2.5465,2.5469,2.5607,2.5684,2.5782,2.5849,2.5856,2.5944,2.5939,2.5984,2.6008,2.6136,2.6186,2.6127,2.6346,2.6304,2.6319,2.6309,2.6323,2.6334,2.6319,2.6108,0,0,0,0,0,2.5374,2.5465,2.5556,2.5669,2.5708,2.5772,2.5827,2.5851,2.5933,2.5966,2.6031,2.6111,2.6206,2.6267,2.6359,2.6501,2.6524,2.6561,2.6572,2.6581,2.6594,2.6673,2.669,2.6502,2.6502,2.6502,0,0,2.5412,2.5483,2.5537,2.5673,2.5735,2.5829,2.5799,2.59,2.597,2.5982,2.6108,2.6158,2.6251,2.6387,2.6451,2.6432,2.6651,2.6592,2.6598,2.6607,2.6684,2.6701,2.6717,2.6508,2.6507,2.6506,0,0,2.5529,2.5591,2.5692,2.5756,2.5851,2.5893,2.5917,2.6014,2.6048,2.6175,2.6186,2.6271,2.6433,2.6499,2.6553,2.6696,2.6699,2.6725,2.6782,2.6858,2.6873,2.6887,2.6938,2.6955,2.6737,2.6737,2.6737,0,2.5564,2.5704,2.5744,2.5844,2.5904,2.5918,2.6022,2.6082,2.6202,2.6243,2.6221,2.6425,2.6488,2.6641,2.6675,2.6719,2.6749,2.6713,2.6868,2.6882,2.6895,2.6944,2.6963,2.6739,2.6739,2.6739,2.6739,0,2.5743,2.5841,2.5911,2.6026,2.6094,2.6195,2.6251,2.6315,2.6333,2.6378,2.6508,2.6585,2.6692,2.6731,2.6749,2.6886,2.6872,2.6858,2.6817,2.6914,2.6961,2.698,2.6743,2.6742,2.6741,2.6741,0,0,2.5869,2.6005,2.603,2.6083,2.6189,2.6266,2.6369,2.6473,2.6527,2.661,2.6698,2.6835,2.6824,2.6886,2.6912,2.698,2.7088,2.6958,2.6961,2.6979,2.7243,2.7252,2.7273,2.7091,2.7094,2.7097,2.7235,0,2.5997,2.6179,2.6217,2.6375,2.6466,2.6481,2.6571,2.6646,2.6691,2.6776,2.6826,2.6922,2.6899,2.6937,2.7004,2.706,2.7141,2.7051,2.7173,2.7177,2.7149,2.7298,2.7308,2.7434,2.7254,2.7257,2.7259,0,2.617,2.6257,2.6423,2.6517,2.6557,2.6636,2.6736,2.6817,2.6903,2.6931,2.7,2.702,2.7128,2.7082,2.7233,2.717,2.7223,2.7258,2.7264,2.7276,2.7223,2.7314,2.7475,2.7494,2.7288,2.7286,2.7284,0,2.6245,2.6403,2.6523,2.6568,2.6681,2.6737,2.6787,2.687,2.693,2.7018,2.7058,2.7157,2.7211,2.7288,2.7334,2.7297,2.7481,2.7439,2.7508,2.7507,2.7545,2.7542,2.7717,2.758,2.758,2.7579,2.7579,0,2.6384,2.6485,2.6558,2.6632,2.6746,2.679,2.6902,2.6952,2.7026,2.711,2.713,2.7209,2.7265,2.7353,2.739,2.7508,2.7533,2.7559,2.7568,2.7557,2.7554,2.7592,2.7584,2.7584,2.7583,2.7582,2.7581,0,2.6486,2.6539,2.6671,2.6768,2.6794,2.6874,2.6957,2.703,2.7075,2.7182,2.721,2.7281,2.7385,2.7439,2.7568,2.7593,2.7727,2.773,2.7697,2.7701,2.7766,2.7759,2.7971,2.8001,2.7844,2.7846,2.7847,0,2.6571,2.6649,2.6753,2.6811,2.6862,2.6955,2.7017,2.7064,2.7128,2.7232,2.7293,2.7397,2.7483,2.7648,2.7713,2.7812,2.7818,2.7885,2.7833,2.782,2.7819,2.7814,2.7822,2.7894,2.7896,2.7897,2.7898,0,2.6715,2.6738,2.6826,2.6924,2.6997,2.7077,2.7155,2.7201,2.7262,2.7333,2.7439,2.7505,2.7638,2.7742,2.7846,2.7899,2.7909,2.7914,2.7935,2.7925,2.7903,2.7916,2.7722,2.7909,2.7908,2.7907,2.7906,2.7906,2.6811,2.6881,2.6966,2.7064,2.7128,2.7201,2.7274,2.7329,2.7417,2.7528,2.7551,2.7663,2.7749,2.789,2.7946,2.8035,2.8021,2.8051,2.8059,2.8066,2.8069,2.7889,2.8054,2.8054,2.8054,2.8053,2.8053,0,2.6956,2.7012,2.7101,2.721,2.7287,2.729,2.7377,2.7442,2.754,2.7619,2.7703,2.7825,2.7926,2.7998,2.8102,2.8159,2.8166,2.8184,2.8181,2.8193,2.8075,2.8047,2.8177,2.8177,2.8177,2.8177,2.8177,2.8177,2.7041,2.7159,2.7192,2.7343,2.7399,2.7508,2.7558,2.7626,2.7688,2.7824,2.7907,2.7954,2.803,2.8139,2.8232,2.8251,2.8288,2.8306,2.8325,2.8214,2.8201,2.8188,2.8161,2.8314,2.8314,2.8435,2.8436,2.8437]},{"header":{"parameterUnit":"m.s-1","parameterCategory":1,"la1":30.2991,"la2":30.254,"lo1":-89.0895,"lo2":-89.0444,"dy":0.0017,"dx":0.0017,"nx":28,"ny":28,"refTime":"2024-07-18T21:00:00:Z","depth":0,"parameterNumber":3,"parameterNumberName":"V-component_of_WINDS"},"data":[0,0,0,0,0,0,0,0,0,0,0,0,0,0,0,0,0,0,0,0,0,0,0,0,0,0,0,0,0,0,0,0,0,0,0,0,0,0,0,0,0,0,0,0,0,0,0,0,0,0,0,0,0,0,0,0,0,0,3.9043,3.9043,0,3.9042,3.9042,3.9042,3.8979,3.8977,3.8976,3.8974,3.8971,3.8973,3.8974,0,0,0,0,0,0,0,0,0,0,0,0,0,3.8991,3.8992,3.9043,3.9043,3.9043,3.9042,3.9042,3.9042,3.8979,3.8977,3.8975,3.8973,3.8971,3.8972,3.8974,0,0,0,0,0,0,0,0,0,0,0,0,0,3.9004,3.8993,3.9043,3.9012,3.9009,3.9042,3.9042,3.9042,3.898,3.8977,3.8975,3.8972,3.897,3.8972,3.8974,3.9037,0,0,3.8981,3.8982,0,0,0,0,0,0,0,0,3.9003,3.9006,3.9016,3.9014,3.9011,3.9008,3.9022,3.904,3.898,3.8991,3.8974,3.8971,3.8985,3.8986,3.8991,3.9037,3.9036,3.8981,3.8983,3.8983,3.8984,0,0,0,0,0,0,0,3.9003,3.9006,3.9043,3.9017,3.9013,3.8998,3.8997,3.9025,3.9002,3.899,3.8985,3.8986,3.8983,3.8989,3.8991,3.9036,3.8981,3.8983,3.8984,3.8985,3.9135,3.9137,0,0,0,0,0,0,3.9006,3.9005,3.9043,3.9043,3.9001,3.9001,3.9,3.9011,3.9001,3.8997,3.8988,3.8983,3.8987,3.8988,3.899,3.9064,3.8983,3.8985,3.8987,3.9132,3.9135,3.9138,0,0,0,0,0,0,3.9005,3.901,3.9043,3.9023,3.9026,3.9004,3.9018,3.9013,3.9018,3.9,3.8995,3.8998,3.8985,3.8987,3.9026,3.9063,3.8986,3.8988,3.9129,3.9133,3.9137,3.9211,0,0,0,0,0,0,3.9004,3.901,3.9034,3.9024,3.9027,3.9079,3.902,3.9014,3.9023,3.9016,3.9009,3.9005,3.8983,3.9023,3.9028,3.9064,3.899,3.9126,3.9131,3.9135,3.9205,3.9217,3.9227,0,0,0,0,0,3.9002,3.9054,3.9035,3.904,3.9056,3.9081,3.9083,3.9057,3.9026,3.9049,3.9038,3.9005,3.9058,3.9028,3.9033,3.907,3.9123,3.9129,3.9135,3.92,3.9214,3.9227,0,0,0,0,0,0,3.9067,3.9052,3.9031,3.908,3.9083,3.907,3.9099,3.9073,3.9084,3.9077,3.9044,3.9043,3.9088,3.9082,3.9049,3.9131,3.9085,3.9092,3.9132,3.9146,3.9157,3.9157,3.8992,0,0,0,0,0,3.9087,3.9109,3.9094,3.914,3.9142,3.9121,3.9131,3.9111,3.9112,3.9112,3.9103,3.9105,3.9122,3.9133,3.9148,3.9204,3.9202,3.9232,3.9243,3.9252,3.9259,3.929,3.9303,3.9158,3.9158,3.9158,0,0,3.9129,3.9123,3.9139,3.9153,3.9152,3.9176,3.9122,3.9148,3.9166,3.9116,3.9152,3.9146,3.9146,3.9194,3.9215,3.9191,3.9299,3.926,3.9267,3.9269,3.9297,3.9311,3.9323,3.9162,3.9161,3.9161,0,0,3.9217,3.9214,3.9253,3.9254,3.9254,3.924,3.9249,3.9241,3.9236,3.9272,3.9236,3.9256,3.9285,3.9287,3.9292,3.9383,3.9354,3.9389,3.9446,3.9477,3.9488,3.9498,3.9532,3.9544,3.9396,3.9396,3.9396,0,3.9268,3.9302,3.9275,3.9306,3.9313,3.927,3.9309,3.9311,3.9316,3.9322,3.9296,3.9334,3.933,3.9379,3.9402,3.9407,3.9417,3.9389,3.9489,3.9498,3.9507,3.9539,3.9552,3.94,3.94,3.9399,3.9399,0,3.9366,3.9391,3.9422,3.9429,3.944,3.9475,3.9453,3.9467,3.9447,3.9436,3.9475,3.9469,3.9483,3.9493,3.9473,3.9539,3.9525,3.9494,3.9448,3.9526,3.9555,3.9567,3.9406,3.9405,3.9403,3.9402,0,0,3.9493,3.9487,3.9499,3.9503,3.9501,3.9519,3.9552,3.9566,3.958,3.9585,3.9612,3.964,3.9612,3.9617,3.9597,3.9624,3.9698,3.959,3.9589,3.9611,3.9772,3.9796,3.981,3.9679,3.9681,3.9683,3.9773,0,3.9579,3.9636,3.9613,3.9672,3.9695,3.9655,3.9684,3.9686,3.9677,3.9695,3.9685,3.9705,3.9666,3.967,3.9694,3.9684,3.973,3.9677,3.9704,3.9705,3.9706,3.9825,3.985,3.9935,3.9784,3.9786,3.9787,0,3.9687,3.9698,3.976,3.9756,3.9764,3.9791,3.9803,3.9821,3.9823,3.9814,3.9822,3.9797,3.9829,3.9783,3.9827,3.9791,3.9801,3.9798,3.9801,3.9802,3.9751,3.9831,3.9961,3.9975,3.9805,3.9803,3.9802,0,3.9775,3.9805,3.9846,3.9851,3.9847,3.9867,3.9866,3.9865,3.9876,3.9887,3.9893,3.9907,3.9915,3.9926,3.9906,3.9874,3.9953,3.9905,3.9948,3.9948,3.9966,3.9965,4.0101,3.9972,3.9972,3.9971,3.9971,0,3.9873,3.9912,3.9886,3.9911,3.9955,3.9929,3.9972,3.9967,3.9967,3.9991,3.9957,3.998,3.9951,3.9971,3.9955,3.9995,3.9998,3.9993,3.9988,3.9996,3.9997,4.0002,3.9996,3.9975,3.9974,3.9973,3.9973,0,3.9978,3.9962,4.0005,3.9999,3.9998,4.003,4.0025,4.0048,4.0037,4.0068,4.0073,4.0056,4.0078,4.0059,4.008,4.0069,4.0122,4.0109,4.0122,4.0119,4.0163,4.0159,4.0306,4.0325,4.0184,4.0185,4.0186,0,4.0043,4.0072,4.007,4.0084,4.0086,4.0109,4.012,4.0096,4.0109,4.0115,4.0138,4.0158,4.0172,4.0209,4.0198,4.0215,4.0202,4.0252,4.0204,4.0211,4.0203,4.0202,4.0205,4.0262,4.0264,4.0265,4.0266,0,4.0159,4.015,4.0168,4.0184,4.0199,4.021,4.0219,4.0232,4.0208,4.0224,4.0247,4.0259,4.0281,4.0301,4.0314,4.0313,4.0286,4.0282,4.0292,4.0301,4.0308,4.0306,4.015,4.0278,4.0277,4.0276,4.0275,4.0275,4.0246,4.0271,4.0274,4.0296,4.03,4.031,4.0332,4.0325,4.0344,4.0361,4.0345,4.0374,4.0376,4.0391,4.0393,4.0415,4.0394,4.0409,4.0413,4.0418,4.0425,4.0305,4.0417,4.0417,4.0416,4.0416,4.0416,0,4.0361,4.0362,4.0382,4.0396,4.0414,4.0388,4.0396,4.0413,4.0438,4.0443,4.0459,4.0486,4.0506,4.0498,4.0515,4.0534,4.0522,4.054,4.0538,4.0539,4.0442,4.0431,4.0549,4.0549,4.0549,4.0549,4.0549,4.0549,4.0423,4.0465,4.0457,4.0501,4.0501,4.0529,4.0537,4.0545,4.0549,4.0582,4.0599,4.0593,4.0593,4.0611,4.0628,4.0625,4.0633,4.0656,4.0648,4.0558,4.0545,4.0533,4.0522,4.0657,4.0658,4.0743,4.0744,4.0744]}]]